Waarnemingen

Advertentie
Mijn weer
Cabo Busto, Spanje (8010): temperatuur & dauwpunt: 14.08.2018 01:00:00 - 20.08.2018 01:00:00 (CEST)Cabo Busto, Spanje (8010): windsnelheid & windstoten: 14.08.2018 01:00:00 - 20.08.2018 01:00:00 (CEST)Cabo Busto, Spanje (8010): windrichting: 14.08.2018 01:00:00 - 20.08.2018 01:00:00 (CEST)Cabo Busto, Spanje (8010): luchtdruk: 14.08.2018 01:00:00 - 20.08.2018 01:00:00 (CEST)Cabo Busto, Spanje (8010): zicht: 14.08.2018 01:00:00 - 20.08.2018 01:00:00 (CEST)Cabo Busto, Spanje (8010): Zonneschijnduur: 14.08.2018 01:00:00 - 20.08.2018 01:00:00 (CEST)Cabo Busto, Spanje (8010): neerslag: 14.08.2018 01:00:00 - 20.08.2018 01:00:00 (CEST)
Datum & Tijd tt [°C] td [°C] ff [km/u] ff [kn] fx [km/u] fx [kn] dd ppp [hPa] vv [km] sd [min] rr [mm]
20.08.2018 01:00:00 - - - - - - - - - - -
20.08.2018 00:00:00 - - - - - - - - - - -
19.08.2018 23:00:00 - - - - - - - - - - -
19.08.2018 22:00:00 - - - - - - - - - - -
19.08.2018 21:00:00 - - - - - - - - - - -
19.08.2018 20:00:00 - - - - - - - - - - -
19.08.2018 19:00:00 - - - - - - - - - - -
19.08.2018 18:00:00 - - - - - - - - - - -
19.08.2018 17:00:00 - - - - - - - - - - -
19.08.2018 16:00:00 - - - - - - - - - - -
19.08.2018 15:00:00 - - - - - - - - - - -
19.08.2018 14:00:00 - - - - - - - - - - -
19.08.2018 13:00:00 - - - - - - - - - - -
19.08.2018 12:00:00 - - - - - - - - - - -
19.08.2018 11:00:00 - - - - - - - - - - -
19.08.2018 10:00:00 - - - - - - - - - - -
19.08.2018 09:00:00 17,6 14,1 8 4 20 11 O 1022,5 15 36 0,0
19.08.2018 08:00:00 15,5 13,2 16 8 23 12 ZO 1022,1 20 0 -
19.08.2018 07:00:00 16,5 13,1 6 4 12 6 O 1021,8 20 0 0,0
19.08.2018 06:00:00 - - - - - - - - - - -
19.08.2018 05:00:00 - - - - - - - - - - -
19.08.2018 04:00:00 - - - - - - - - - - -
19.08.2018 03:00:00 - - - - - - - - - - -
19.08.2018 02:00:00 - - - - - - - - - - -
19.08.2018 01:00:00 18,1 14,2 11 6 25 13 O 1022,3 20 0 0,0
19.08.2018 00:00:00 18,4 14,3 13 7 24 13 O 1022,4 20 0 0,0
18.08.2018 23:00:00 18,7 14,1 14 8 32 17 O 1022,2 20 0 0,0
18.08.2018 22:00:00 - - - - - - - - - - -
18.08.2018 21:00:00 - - - - - - - - - - -
18.08.2018 20:00:00 - - - - - - - - - - -
18.08.2018 19:00:00 - - - - - - - - - - -
18.08.2018 18:00:00 - - - - - - - - - - -
18.08.2018 17:00:00 20,3 14,6 35 19 54 29 NO 1021,2 20 60 0,0
18.08.2018 16:00:00 - - - - - - - - - - -
18.08.2018 15:00:00 - - - - - - - - - - -
18.08.2018 14:00:00 - - - - - - - - - - -
18.08.2018 13:00:00 - - - - - - - - - - -
18.08.2018 12:00:00 - - - - - - - - - - -
18.08.2018 11:00:00 19,8 13,3 17 9 36 19 NO 1023,0 14 60 0,0
18.08.2018 10:00:00 19,0 14,0 11 6 23 12 NO 1023,0 10 60 0,0
18.08.2018 09:00:00 18,1 12,3 12 7 24 13 O 1023,0 17 37 0,0
18.08.2018 08:00:00 15,3 11,4 9 5 16 9 OZO 1022,9 20 0 -
18.08.2018 07:00:00 15,2 11,6 10 5 14 7 OZO 1022,7 20 0 0,0
18.08.2018 06:00:00 15,2 11,6 9 5 12 7 ZO 1023,1 20 0 0,0
18.08.2018 05:00:00 15,3 11,9 9 5 15 8 OZO 1023,3 20 0 0,0
18.08.2018 04:00:00 15,5 12,1 10 5 15 8 ZO 1023,3 20 0 0,0
18.08.2018 03:00:00 17,1 12,4 10 5 16 9 O 1023,6 13 0 0,0
18.08.2018 02:00:00 17,3 12,6 10 5 18 10 O 1023,9 14 0 -
18.08.2018 01:00:00 17,5 12,8 10 5 22 12 O 1024,2 13 0 0,0
18.08.2018 00:00:00 17,6 13,4 11 6 20 11 O 1024,4 12 0 0,0
17.08.2018 23:00:00 18,0 13,9 13 7 26 14 O 1024,3 11 0 0,0
17.08.2018 22:00:00 18,6 14,5 16 9 35 19 ONO 1023,8 6 11 0,0
17.08.2018 21:00:00 19,1 14,1 16 9 31 17 NO 1023,4 8 49 0,0
17.08.2018 20:00:00 - - - - - - - - - - -
17.08.2018 19:00:00 - - - - - - - - - - -
17.08.2018 18:00:00 - - - - - - - - - - -
17.08.2018 17:00:00 - - - - - - - - - - -
17.08.2018 16:00:00 - - - - - - - - - - -
17.08.2018 15:00:00 21,4 16,0 4 2 20 11 NNW 1024,5 10 45 0,0
17.08.2018 14:00:00 20,2 16,2 4 2 12 6 NNW 1024,6 6 15 -
17.08.2018 13:00:00 17,8 14,9 6 3 12 7 NO 1024,9 16 10 0,0
17.08.2018 12:00:00 18,1 15,5 5 3 11 6 ZZW 1024,9 13 3 0,0
17.08.2018 11:00:00 17,3 14,7 4 2 21 12 ZW 1024,7 2,6 0 0,4
17.08.2018 10:00:00 17,3 14,0 5 3 14 8 ZZO 1023,9 20 0 0,0
17.08.2018 09:00:00 16,9 13,7 5 3 20 11 O 1023,5 20 0 0,0
17.08.2018 08:00:00 17,1 13,5 8 4 16 9 ZZO 1023,3 20 0 -
17.08.2018 07:00:00 17,2 13,4 5 3 30 16 W 1023,0 20 0 0,0
17.08.2018 06:00:00 18,0 12,2 13 7 26 14 NW 1022,5 20 0 0,0
17.08.2018 05:00:00 17,8 13,4 9 5 33 18 NO 1022,2 20 0 0,0
17.08.2018 04:00:00 - - - - - - - - - - -
17.08.2018 03:00:00 - - - - - - - - - - -
17.08.2018 02:00:00 - - - - - - - - - - -
17.08.2018 01:00:00 - - - - - - - - - - -
17.08.2018 00:00:00 - - - - - - - - - - -
16.08.2018 23:00:00 17,9 16,0 9 5 48 26 WNW 1020,9 18 0 0,0
16.08.2018 22:00:00 - - - - - - - - - - -
16.08.2018 21:00:00 20,0 16,8 10 5 13 7 W 1019,8 20 0 0,0
16.08.2018 20:00:00 - - - - - - - - - - -
16.08.2018 19:00:00 21,7 17,9 10 5 14 8 WNW 1019,7 20 21 0,0
16.08.2018 18:00:00 21,6 17,4 5 3 13 7 N 1019,5 20 31 0,0
16.08.2018 17:00:00 21,8 16,7 6 3 18 10 NNW 1019,5 20 21 0,0
16.08.2018 16:00:00 21,6 17,0 10 6 25 14 NW 1019,4 20 19 0,0
16.08.2018 15:00:00 22,4 18,5 4 2 11 6 WNW 1019,2 20 43 0,0
16.08.2018 14:00:00 22,7 19,5 4 2 12 7 WNW 1018,9 16 26 -
16.08.2018 13:00:00 - - - - - - - - - - -
16.08.2018 12:00:00 - - - - - - - - - - -
16.08.2018 11:00:00 20,3 18,2 4 2 10 6 ZZO 1018,4 11 0 0,6
16.08.2018 10:00:00 19,9 17,9 6 3 11 6 ZW 1018,2 8 0 0,2
16.08.2018 09:00:00 20,0 17,6 8 5 13 7 WZW 1017,6 6 0 0,6
16.08.2018 08:00:00 19,9 17,5 9 5 13 7 WZW 1017,3 20 0 -
16.08.2018 07:00:00 19,6 17,4 12 6 16 9 WZW 1017,0 20 0 0,0
16.08.2018 06:00:00 19,4 17,4 9 5 13 7 WZW 1016,9 20 0 0,0
16.08.2018 05:00:00 19,3 17,1 9 5 12 7 W 1016,8 16 0 0,0
16.08.2018 04:00:00 19,3 16,9 5 3 11 6 W 1017,0 18 0 0,0
16.08.2018 03:00:00 19,3 16,9 6 3 10 5 Z 1017,3 20 0 0,0
16.08.2018 02:00:00 - - - - - - - - - - -
16.08.2018 01:00:00 - - - - - - - - - - -
16.08.2018 00:00:00 - - - - - - - - - - -
15.08.2018 23:00:00 - - - - - - - - - - -
15.08.2018 22:00:00 - - - - - - - - - - -
15.08.2018 21:00:00 20,6 17,4 25 13 42 23 NO 1016,2 20 60 0,0
15.08.2018 20:00:00 21,0 17,4 25 13 45 24 NO 1016,0 20 60 -
15.08.2018 19:00:00 - - - - - - - - - - -
15.08.2018 18:00:00 - - - - - - - - - - -
15.08.2018 17:00:00 - - - - - - - - - - -
15.08.2018 16:00:00 - - - - - - - - - - -
15.08.2018 15:00:00 - - - - - - - - - - -
15.08.2018 14:00:00 22,3 17,0 27 15 54 29 NO 1017,3 20 60 -
15.08.2018 13:00:00 22,3 16,6 24 13 50 27 NO 1017,6 20 60 0,0
15.08.2018 12:00:00 22,2 15,5 24 13 42 23 NO 1017,8 20 60 0,0
15.08.2018 11:00:00 21,9 15,3 18 10 37 20 NO 1018,1 20 60 0,0
15.08.2018 10:00:00 21,9 14,3 9 5 14 8 O 1018,6 20 60 0,0
15.08.2018 09:00:00 19,9 14,7 6 3 18 10 O 1018,7 18 40 0,0
15.08.2018 08:00:00 18,6 14,7 14 7 27 14 O 1018,5 20 0 -
15.08.2018 07:00:00 18,5 14,8 14 7 25 14 O 1018,6 20 0 0,0
15.08.2018 06:00:00 18,7 14,8 11 6 25 14 O 1019,1 20 0 0,0
15.08.2018 05:00:00 18,6 14,5 8 5 21 11 O 1019,6 20 0 0,0
15.08.2018 04:00:00 19,1 15,0 11 6 23 12 O 1020,1 20 0 0,0
15.08.2018 03:00:00 19,0 15,3 11 6 29 16 O 1020,7 20 0 0,0
15.08.2018 02:00:00 - - - - - - - - - - -
15.08.2018 01:00:00 - - - - - - - - - - -
15.08.2018 00:00:00 - - - - - - - - - - -
14.08.2018 23:00:00 - - - - - - - - - - -
14.08.2018 22:00:00 20,3 16,3 22 12 45 24 ONO 1021,1 20 18 0,0
14.08.2018 21:00:00 20,7 16,3 27 15 50 27 NO 1020,6 20 60 0,0
14.08.2018 20:00:00 - - - - - - - - - - -
14.08.2018 19:00:00 - - - - - - - - - - -
14.08.2018 18:00:00 - - - - - - - - - - -
14.08.2018 17:00:00 - - - - - - - - - - -
14.08.2018 16:00:00 - - - - - - - - - - -
14.08.2018 15:00:00 22,2 16,5 19 10 38 21 NO 1021,9 18 60 0,0
14.08.2018 14:00:00 22,4 16,2 13 7 33 18 NNO 1022,0 20 60 -
14.08.2018 13:00:00 - - - - - - - - - - -
14.08.2018 12:00:00 - - - - - - - - - - -
14.08.2018 11:00:00 - - - - - - - - - - -
14.08.2018 10:00:00 - - - - - - - - - - -
14.08.2018 09:00:00 - - - - - - - - - - -
14.08.2018 08:00:00 17,3 15,3 16 8 21 11 ZZO 1021,3 20 0 -
14.08.2018 07:00:00 17,1 15,1 10 6 16 8 ZZO 1021,0 20 0 0,2
14.08.2018 06:00:00 17,2 15,2 10 6 13 7 ZZO 1020,7 11 0 0,0
14.08.2018 05:00:00 17,4 15,3 9 5 12 7 Z 1020,6 20 0 0,0
14.08.2018 04:00:00 17,7 15,5 8 5 15 8 Z 1020,5 20 0 0,0
14.08.2018 03:00:00 17,9 15,7 10 5 15 8 ZZO 1020,5 20 0 0,0
14.08.2018 02:00:00 18,0 15,6 10 6 14 8 Z 1020,5 20 0 -
14.08.2018 01:00:00 - - - - - - - - - - -

tt = temperatuur
td = dauwpunt
ff = windsnelheid
fx = windstoten
dd = windrichting
ppp = luchtdruk
vv = zicht
sd = Zonneschijnduur
rr = neerslag

Weerstations in de omgeving